This is the latest recevied weather packets stored in our database for station/object N0QV. If no packets are shown the sender has not sent any weather packets the latest 10 day(s).
| Time | Temp. | Humidity | Pressure | Rain* | Wind** | Luminosity | Snow |
|---|---|---|---|---|---|---|---|
| 1787997554 | 20° C | 91% | 1015.3 hPa | 4.32 mm | - | 0 W/m² | - |
| 1787997254 | 20° C | 92% | 1015.4 hPa | 3.05 mm | - | 0 W/m² | - |
| 1787996954 | 20° C | 91% | 1015.5 hPa | 3.05 mm | - | 0 W/m² | - |
| 1787996649 | 20° C | 91% | 1015.5 hPa | 1.27 mm | - | 0 W/m² | - |
| 1787996344 | 20° C | 91% | 1015 hPa | 1.78 mm | - | 0 W/m² | - |
| 1787996043 | 20° C | 91% | 1014.8 hPa | 1.78 mm | - | 0 W/m² | - |
| 1787995738 | 20° C | 91% | 1014.6 hPa | 0 mm | - | 0 W/m² | - |
| 1787995434 | 20° C | 90% | 1014.6 hPa | 1.27 mm | - | 0 W/m² | - |
| 1787995130 | 20° C | 90% | 1014.5 hPa | 0 mm | - | 0 W/m² | - |
| 1787994825 | 20° C | 91% | 1014.4 hPa | 1.78 mm | - | 0 W/m² | - |
| 1787994522 | 20° C | 91% | 1014.1 hPa | 3.56 mm | - | 0 W/m² | - |
| 1787994218 | 20° C | 91% | 1014.2 hPa | 1.78 mm | - | 0 W/m² | - |
| 1787993917 | 20° C | 90% | 1014.4 hPa | 1.27 mm | - | 0 W/m² | - |
| 1787993611 | 20° C | 90% | 1014.5 hPa | 3.05 mm | - | 0 W/m² | - |
| 1787993307 | 20° C | 90% | 1014.6 hPa | 4.83 mm | - | 0 W/m² | - |
| 1787993007 | 20° C | 90% | 1014.9 hPa | 1.78 mm | - | 0 W/m² | - |
| 1787992702 | 20.56° C | 90% | 1014.8 hPa | 1.27 mm | - | 0 W/m² | - |
| 1787992396 | 20.56° C | 89% | 1014.9 hPa | 1.78 mm | - | 0 W/m² | - |
| 1787992096 | 20.56° C | 89% | 1014.8 hPa | 3.05 mm | - | 0 W/m² | - |
| 1787991794 | 20.56° C | 89% | 1014.8 hPa | 3.05 mm | - | 0 W/m² | - |
| 1787991502 | 20.56° C | 89% | 1015 hPa | 1.78 mm | - | 0 W/m² | - |
| 1787991186 | 20.56° C | 89% | 1015.1 hPa | 0 mm | - | 0 W/m² | - |
| 1787990881 | 20.56° C | 89% | 1014.8 hPa | 1.27 mm | - | 0 W/m² | - |
| 1787990576 | 20.56° C | 89% | 1015.1 hPa | 1.27 mm | - | 0 W/m² | - |
| 1787990274 | 20.56° C | 88% | 1015.2 hPa | 0 mm | - | 0 W/m² | - |
* Rain latest hour (hover to see other rain measurements)
** Current wind speed in m/s (hover to see current wind gust speed)